Current weather by "City, St" or "zip code"  
 
Advertise Here

Current Conditions: Houston, Hooks Memorial Airport, TX

Fog/Mist


53.0 F

Last Updated on Nov 23 2020, 8:53 pm CST
Humidity: 93%
Wind Speed: N 0.0 mph
Barometer 30.14 in
Dewpoint: 51.1 F
Visibility: 6.00 mi
Precip: --
Heat Index: NA
Wind Chill: NA
Current conditions at:

Houston, Hooks Memorial Airport, TX (KDWH)

Lat: 30.0675 Lon: 95.55611

Local Radar Image active severe weather and emergency alerts image image weather storm and storm spotter reports image weather observation monitoring service image
Local
Radar
Active
Alerts
Storm Reports Obs
Monitoring

Sign-up For Email & Text Message Weather Alert Notification Services


Advertise Here

Observation History for Houston, Hooks Memorial Airport, TX


Time Wind
(mph)
Vis
(mi)
Weather Precip (in) Temperature (F) Relative
Humidity
Wind
Chill
(F)
Heat
Index
(F)
Pressure
Air Dwpt altimeter
(in)
sea level
(mb)
Rmks
8:53 pm CST N 0.0 6.00 Fog/Mist -- 53.0 51.1 93% NA NA 30.14 1020.4
7:53 pm CST E 4.6 9.00 Fair -- 57.0 53.1 87% 57 NA 30.13 1020.2
6:53 pm CST E 4.6 10.00 Overcast -- 59.0 53.1 81% 59 NA 30.15 1020.8
5:53 pm CST E 6.9 10.00 Overcast -- 62.0 55.0 78% 62 NA 30.15 1020.7
3:53 pm CST E 5.8 10.00 Overcast -- 64.0 55.0 73% NA NA 30.17 1021.5
1:53 pm CST E 4.6 10.00 Overcast -- 63.0 55.0 76% 64 NA 30.20 1022.5
12:53 pm CST E 3.5 10.00 Overcast -- 63.0 55.0 76% NA NA 30.23 1023.5
11:53 am CST NE 8.1 10.00 Overcast -- 62.0 55.0 78% 61 NA 30.26 1024.5
10:53 am CST E 5.8 10.00 Overcast -- 61.0 54.0 78% 61 NA 30.29 1025.4
9:53 am CST NE 6.9 10.00 Overcast -- 61.0 54.0 78% 60 NA 30.29 1025.6
8:53 am CST NE 6.9 10.00 Overcast -- 59.0 54.0 83% 58 NA 30.29 1025.4
7:53 am CST NE 6.9 9.00 Overcast -- 58.0 53.1 84% 57 NA 30.28 1025.3
6:53 am CST N 5.8 10.00 Overcast -- 58.0 52.0 81% 57 NA 30.27 1024.9
5:53 am CST NE 6.9 10.00 Overcast -- 58.0 52.0 81% 57 NA 30.26 1024.5
4:53 am CST NE 5.8 10.00 Overcast -- 58.0 52.0 81% 57 NA 30.25 1024.1
3:53 am CST N 8.1 10.00 Overcast -- 60.0 54.0 80% 59 NA 30.25 1023.9
2:53 am CST N 5.8 10.00 Overcast -- 61.0 54.0 78% 61 NA 30.25 1023.9
1:53 am CST N 5.8 10.00 Mostly Cloudy -- 61.0 55.0 81% 61 NA 30.25 1024.2
12:53 am CST N 4.6 10.00 Mostly Cloudy -- 63.0 55.9 78% 64 NA 30.26 1024.3
11:53 pm CST NE 6.9 10.00 Fair -- 64.0 57.0 78% NA NA 30.26 1024.5
10:53 pm CST N 8.1 10.00 Fair -- 65.0 57.0 76% NA NA 30.26 1024.6

Regional Weather Observation


Conroe, Montgomery County Airport, TX (KCXO)

Fog/Mist
51.0 F

Huntsville, Huntsville Municipal Airport, TX (KUTS)

Fair
58.0 F

Cleveland, TX (K6R3)

Fair
52.0 F

Brenham, Brenham Municipal Airport, TX (K11R)

Overcast
62.0 F

College Station, Easterwood Field, TX (KCLL)

Overcast
61.0 F

John Dunn Helistop, TX (KMCJ)

Partly Cloudy
59.0 F